Hourly Data Report for September 08, 2017

All times are specified in Local Standard Time (LST). Add 1 hour to adjust for Daylight Saving Time where and when it is observed.

WINNIPEG A CS
MANITOBA

49°55'00.000" N
97°14'58.000" W
238.70 m
502S001
71849
XWG

Download Data

Hourly Data (September 2017)
Hourly Data Report for September 8, 2017
Temp Definition
°C
Dew Point Temp Definition
°C
Rel Hum Definition
%
Wind Dir Definition
10's deg

Wind Spd Definition
km/h
Visibility Definition
km
Stn Press Definition
kPa
Hmdx Definition


Wind Chill Definition


Weather Definition


TIME
00:00 12.3 7.0 70 12 16   99.25     LegendNANA
01:00 11.2 6.8 74 12 13   99.29     LegendNANA
02:00 9.9 6.4 79 11 10   99.35     LegendNANA
03:00 10.1 6.5 78 12 12   99.38     LegendNANA
04:00 8.6 5.9 83 15 9   99.42     LegendNANA
05:00 7.9 5.7 86 14 12   99.45     LegendNANA
06:00 7.5 5.5 87 12 10   99.49     LegendNANA
07:00 9.1 6.3 83 15 5   99.58     LegendNANA
08:00 11.5 6.8 73 17 13   99.59     LegendNANA
09:00 14.2 7.9 66 16 12   99.61     LegendNANA
10:00 16.5 8.2 58 17 16   99.62     LegendNANA
11:00 18.7 6.4 45 17 20   99.59     LegendNANA
12:00 19.5 4.9 38 17 18   99.56     LegendNANA
13:00 20.5 4.8 36 15 19   99.54     LegendNANA
14:00 21.9 4.0 31 17 22   99.45     LegendNANA
15:00 22.0 3.6 30 17 22   99.40     LegendNANA
16:00 22.1 3.1 29 17 21   99.36     LegendNANA
17:00 21.8 2.9 29 17 20   99.32     LegendNANA
18:00 20.6 2.8 31 16 22   99.29     LegendNANA
19:00 17.5 3.6 40 15 15   99.28     LegendNANA
20:00 17.3 3.5 40 15 19   99.31     LegendNANA
21:00 16.1 4.3 45 15 22   99.33     LegendNANA
22:00 15.6 5.4 51 16 23   99.34     LegendNANA
23:00 14.7 5.9 55 17 24   99.36     LegendNANA

Notes on Data Quality.

Legend

  • E = Estimated
  • M = Missing
  • NA = Not Available
  • ‡ = Partner data that is not subject to review by the National Climate Archives
Date modified: